Location: Namasale
(1.5000°N, 32.6167°E)
Time: 09:35:17
(UTC+00:00)

Vanguard 1 Rocket - Pass Details

Date: 26 April 2021
Orbit: 652 x 4225 km, 34.3° (Epoch: 15 May)

Event Time Altitude Azimuth Distance (km) Brightness Sun altitude
Rises 20:10:51 0° 262° (W) 4,558 11.3 -61.6°
Enters shadow 20:13:06 - 253° (WSW) 4,168 10.9 -62.1°
Reaches altitude 10° 20:14:14 10° 247° (WSW) 4,017 - -62.3°
Maximum altitude 20:22:58 24° 197° (SSW) 4,019 - -64.1°
Drops below altitude 10° 20:36:51 10° 150° (SSE) 6,462 - -66.8°
Sets 20:44:51 0° 138° (SE) 8,024 - -68.2°
